Regional Weather Roundup
Issued by NWS

Home | Current Version | Previous Version | Text Only | Print | Product List | Glossary Off
Versions: 1 2 3 4 5 6 7 8 9 10 11 12 13 14 15 16 17 18 19 20 21 22 23 24 25 26 27 28 29 30 31 32 33 34 35 36 37 38 39 40 41 42 43 44 45 46 47 48 49 50

000
ASUS43 KOAX 280910
RWRNE

WEATHER ROUNDUP FOR NEBRASKA
NATIONAL WEATHER SERVICE OMAHA NE
300 AM CST TUE FEB 28 2017

NOTES: SATELLITE DATA IS BEING USED TO AUGMENT CLOUD COVER ABOVE
       12000 FEET.
       "FAIR" INDICATES FEW OR NO CLOUDS BELOW 12,000 FEET WITH NO
       SIGNIFICANT WEATHER AND/OR OBSTRUCTIONS TO VISIBILITY.

  * THESE STATIONS DO NOT REPORT WEATHER SUCH AS RAIN...SNOW OR FOG.

NEZ001>004-019>022-054>056-281000-
NEBRASKA PANHANDLE

CITY           SKY/WX    TMP DP  RH WIND       PRES   REMARKS
SCOTTSBLUFF    CLOUDY    29  18  63 W16       29.71S WCI  17
ALLIANCE       CLOUDY    25  21  85 W15       29.66F WCI  13
CHADRON        CLOUDY    19  17  92 CALM      29.68F
KIMBALL        CLOUDY    30  19  62 NW17G24   29.68F WCI  19
SIDNEY         CLEAR     24  20  84 NW12      29.71R WCI  13
$$

NEZ057>060-069>072-079>082-281000-
SOUTHWEST NEBRASKA

CITY           SKY/WX    TMP DP  RH WIND       PRES   REMARKS
NORTH PLATTE   CLEAR     31  25  78 NW5       29.66R WCI  26
IMPERIAL       CLEAR     31  24  75 NW16      29.70R WCI  20
LEXINGTON      CLEAR     32  27  80 NW14      29.62R WCI  22
MCCOOK         CLEAR     33  26  75 NW16      29.66R WCI  23
OGALLALA       CLEAR     29  24  82 W6        29.71R WCI  23
$$

NEZ005>010-023>029-035>040-094-281000-
NORTH CENTRAL NEBRASKA

CITY           SKY/WX    TMP DP  RH WIND       PRES   REMARKS
VALENTINE      CLOUDY    29  23  78 N7        29.67R WCI  22
AINSWORTH      CLOUDY    27  26  96 N6        29.63F WCI  21
BROKEN BOW     CLEAR     33  29  85 NW13      29.62R WCI  24
O`NEILL        CLOUDY    31  30  93 N14       29.61F WCI  21
ORD            CLOUDY    33  30  88 NW9       29.58R FOG     WCI  25
THEDFORD       CLEAR     29  27  90 NW3       29.66R
$$

NEZ041-046>049-061>064-073>077-083>087-281000-
SOUTH CENTRAL NEBRASKA

CITY           SKY/WX    TMP DP  RH WIND       PRES   REMARKS
GRAND ISLAND   FOG       30  30 100 SW3       29.55F VSB 1/4
AURORA         CLOUDY    37  37  97 SW7       29.55S WCI  32
HASTINGS       CLOUDY    39  35  86 SW6       29.56R WCI  35
HEBRON         CLOUDY    45  37  73 SW7       29.57F
HOLDREGE       CLOUDY    40  22  49 W18G24    29.60R WCI  31
KEARNEY *      CLOUDY    39  28  65 W12       29.58R WCI  32
YORK           CLOUDY    39  39 100 S7        29.55F WCI  34
$$

NEZ011>018-030>034-042>045-281000-
NORTHEAST NEBRASKA

CITY           SKY/WX    TMP DP  RH WIND       PRES   REMARKS
NORFOLK        MOCLDY    36  30  79 SE5       29.57F WCI  32
ALBION         CLOUDY    31  29  91 CALM      29.57F FOG
BLAIR          CLOUDY    46  40  79 SE5       29.58F
FREMONT        CLOUDY    44  37  78 E3        29.58F
TEKAMAH        CLOUDY    34  31  88 N6        29.61S WCI  29
WAYNE          PTCLDY    29  28  94 N5        29.59F WCI  24
$$

NEZ050>053-065>068-078-088>093-281000-
SOUTHEAST NEBRASKA

CITY           SKY/WX    TMP DP  RH WIND       PRES   REMARKS
LINCOLN        PTCLDY    45  44  97 S8        29.58S
OMAHA EPPLEY   CLOUDY    42  34  73 CALM      29.59F
BEATRICE       CLOUDY    49  48  96 S13       29.58S
FALLS CITY     PTCLDY    57  54  89 S10       29.61F
NEBRASKA CITY  CLOUDY    52  48  87 S14       29.58F
PLATTSMOUTH    CLOUDY    53  46  77 SE14      29.58F
$$

NEZ044-045-051>053-067-281000-
OMAHA AREA

CITY           SKY/WX    TMP DP  RH WIND       PRES   REMARKS
OMAHA EPPLEY   CLOUDY    42  34  73 CALM      29.59F
BLAIR          CLOUDY    46  40  79 SE5       29.58F
FREMONT        CLOUDY    44  37  78 E3        29.58F
MILLARD        CLOUDY    50  45  81 SE5       29.58F
OFFUTT AFB     CLOUDY    52  45  76 S6        29.59F
PLATTSMOUTH    CLOUDY    53  46  77 SE14      29.58F
WAHOO          PTSUNNY   38  35  91 CALM      29.57F
$$




USA.gov is the U.S. government's official web portal to all federal, state and local government web resources and services.